DW5950 Weather Reports


Display with metric or nautical units.
time (UTC)temp
F
wind
direction
speed
MPH
gust
MPH
rain 1hr
in
rain 24hr
in
rain mn
in
humidity
%
barometer
mb
20181119170208 65 141 0.0 1.0 0.00 0.00 0.00 59 1018.1
20181119164626 65 101 0.0 2.0 0.00 0.00 0.00 60 1018.0
20181119163134 65 101 1.0 4.0 0.00 0.00 0.00 60 1017.9
20181119161817 66 91 2.0 5.0 0.00 0.00 0.00 60 1017.9
20181119160121 66 111 2.0 4.0 0.00 0.00 0.00 60 1018.0
20181119154645 66 124 1.0 4.0 0.00 0.00 0.00 60 1017.9
20181119153019 66 122 0.0 1.0 0.00 0.00 0.00 63 1017.7
20181119151537 66 121 0.0 3.0 0.00 0.00 0.00 63 1017.5
20181119150020 67 130 0.0 2.0 0.00 0.00 0.00 64 1017.3
20181119144512 67 130 0.0 2.0 0.00 0.00 0.00 63 1017.3
20181119143011 69 130 0.0 1.0 0.00 0.00 0.00 60 1017.1
20181119141520 72 13 0.0 0.0 0.00 0.00 0.00 53 1017.0
20181119140009 73 13 0.0 0.0 0.00 0.00 0.00 50 1017.1
20181119134506 73 13 0.0 1.0 0.00 0.00 0.00 48 1017.0
20181119133003 74 27 0.0 1.0 0.00 0.00 0.00 47 1017.1
20181119131510 74 25 0.0 2.0 0.00 0.00 0.00 47 1017.0
20181119123111 76 358 2.0 6.0 0.00 0.00 0.00 44 1016.9
20181119121655 76 329 1.0 5.0 0.00 0.00 0.00 43 1017.0
20181119120124 76 20 0.0 3.0 0.00 0.00 0.00 41 1017.0
20181119114616 76 314 1.0 4.0 0.00 0.00 0.00 41 1017.0
20181119111604 77 68 0.0 5.0 0.00 0.00 0.00 41 1016.9
20181119110107 77 40 0.0 4.0 0.00 0.00 0.00 41 1017.0
20181119104547 77 5 1.0 5.0 0.00 0.00 0.00 40 1017.2
20181119103120 76 344 0.0 5.0 0.00 0.00 0.00 42 1017.3
20181119101636 76 20 0.0 4.0 0.00 0.00 0.00 42 1017.4
20181119100102 76 315 1.0 3.0 0.00 0.00 0.00 40 1017.5
20181119094610 75 343 2.0 5.0 0.00 0.00 0.00 46 1017.5
20181119093140 75 23 0.0 3.0 0.00 0.00 0.00 43 1017.5
20181119091538 74 359 0.0 4.0 0.00 0.00 0.00 43 1017.5
20181119090055 74 37 1.0 6.0 0.00 0.00 0.00 44 1017.6
20181119084611 75 57 0.0 6.0 0.00 0.00 0.00 46 1017.6
20181119083051 76 1 1.0 4.0 0.00 0.00 0.00 43 1017.6
20181119081545 76 6 1.0 5.0 0.00 0.00 0.00 40 1017.4
20181119074738 74 283 0.0 3.0 0.00 0.00 0.00 54 1017.4
20181119073218 74 290 0.0 1.0 0.00 0.00 0.00 57 1017.3
20181119071608 73 98 0.0 0.0 0.00 0.00 0.00 52 1017.3
20181119070123 70 98 0.0 0.0 0.00 0.00 0.00 57 1017.4
20181119064630 68 106 0.0 1.0 0.00 0.00 0.00 59 1017.5
20181119063111 66 106 0.0 0.0 0.00 0.00 0.00 59 1017.5
20181119061549 64 106 0.0 1.0 0.00 0.00 0.00 63 1017.3
20181119060100 64 106 0.0 0.0 0.00 0.00 0.00 65 1017.3
20181119054603 65 106 0.0 0.0 0.00 0.00 0.00 56 1017.1
20181119053053 65 106 0.0 0.0 0.00 0.00 0.00 53 1016.9
20181119051556 65 105 0.0 0.0 0.00 0.00 0.00 54 1016.8
20181119050119 65 105 0.0 1.0 0.00 0.00 0.00 53 1016.7
20181119044603 65 106 0.0 1.0 0.00 0.00 0.00 53 1016.6
20181119043103 65 95 0.0 3.0 0.00 0.00 0.00 52 1016.6
20181119041536 65 101 0.0 2.0 0.00 0.00 0.00 53 1016.5
20181119034805 62 100 0.0 1.0 0.00 0.00 0.00 57 1016.4
20181119033135 63 91 0.0 1.0 0.00 0.00 0.00 56 1016.3
20181119031745 64 105 0.0 1.0 0.00 0.00 0.00 53 1016.3
20181119030137 64 88 0.0 1.0 0.00 0.00 0.00 52 1016.2
20181119024630 64 122 0.0 2.0 0.00 0.00 0.00 52 1016.1
20181119023128 65 226 0.0 2.0 0.00 0.00 0.00 51 1016.0
20181119021846 65 92 0.0 1.0 0.00 0.00 0.00 52 1015.7
20181119020243 65 84 0.0 3.0 0.00 0.00 0.00 52 1015.7
20181119014645 65 106 0.0 1.0 0.00 0.00 0.00 52 1015.6
20181119013130 64 103 0.0 4.0 0.00 0.00 0.00 53 1015.6
20181119011613 64 95 0.0 1.0 0.00 0.00 0.00 55 1015.7
20181119010152 63 110 0.0 1.0 0.00 0.00 0.00 55 1015.7
20181119004717 63 101 0.0 2.0 0.00 0.00 0.00 57 1015.8
20181119003142 63 86 0.0 1.0 0.00 0.00 0.00 55 1015.8
20181119001625 63 86 0.0 0.0 0.00 0.00 0.00 57 1015.8
20181119000113 64 86 0.0 1.0 0.00 0.00 0.00 54 1015.9
20181118234642 64 86 0.0 4.0 0.00 0.00 0.00 55 1015.9
20181118233118 64 94 0.0 2.0 0.00 0.00 0.00 54 1016.0
20181118231804 65 109 0.0 2.0 0.00 0.00 0.00 52 1016.2
20181118230117 64 149 0.0 2.0 0.00 0.00 0.00 53 1016.2
20181118224635 64 106 1.0 3.0 0.00 0.00 0.00 54 1016.5
20181118223107 64 96 0.0 1.0 0.00 0.00 0.00 56 1016.5
20181118214532 63 97 0.0 1.0 0.00 0.00 0.00 58 1016.9
20181118213011 63 97 0.0 0.0 0.00 0.00 0.00 60 1017.0
20181118211526 63 97 0.0 0.0 0.00 0.00 0.00 60 1017.1
20181118210005 62 117 0.0 1.0 0.00 0.00 0.00 62 1017.3
20181118204504 62 91 0.0 0.0 0.00 0.00 0.00 64 1017.4
20181118203245 62 93 0.0 1.0 0.00 0.00 0.00 64 1017.6
20181118201625 62 93 0.0 1.0 0.00 0.00 0.00 66 1017.9
20181118200135 62 111 0.0 0.0 0.00 0.00 0.00 65 1017.8
20181118194707 62 111 0.0 0.0 0.00 0.00 0.00 64 1017.9
20181118193211 63 111 0.0 0.0 0.00 0.00 0.00 65 1017.9
20181118191650 63 111 0.0 1.0 0.00 0.00 0.00 64 1018.0
20181118190118 63 114 0.0 0.0 0.00 0.00 0.00 64 1018.2
20181118184613 63 114 0.0 0.0 0.00 0.00 0.00 62 1018.1
20181118183154 64 114 0.0 1.0 0.00 0.00 0.00 63 1018.1
20181118180155 63 120 0.0 1.0 0.00 0.00 0.00 64 1018.3
20181118174620 63 110 0.0 1.0 0.00 0.00 0.00 66 1018.4
20181118173124 62 108 0.0 1.0 0.00 0.00 0.00 67 1018.4